User: anonymous   Login
Location: Demmingen
(48.6757°N, 10.4375°E)
Time: 16:33:29
(UTC+00:00)
Language:

Okean 1-7 - Orbit

View from above orbital plane
View from above orbital plane
View from above satellite
View from above satellite

Ground track
Ground track

The orbit data is extracted from the following two-line orbital elements,

1 23317U 94066A   24200.45507067  .00004081  00000-0  39671-3 0  9995
2 23317  82.5342 200.4208 0020034 101.0224 259.3250 14.92207483610932
Epoch (UTC): 18 July 2024 10:55:18
Eccentricity: 0.0020034
inclination: 82.5342°
perigee height: 577 km
apogee height: 605 km
right ascension of ascending node: 200.4208°
argument of perigee: 101.0224°
revolutions per day: 14.92207483
mean anomaly at epoch: 259.3250°
orbit number at epoch: 61093

The dashed part of the orbit path shows where the satellite is in the earth's shadow,  

DLR